Regional Weather Roundup
Issued by NWS

Home | Current Version | Previous Version | Graphics & Text | Print | Product List | Glossary Off
Versions: 1 2 3 4 5 6 7 8 9 10 11 12 13 14 15 16 17 18 19 20 21 22 23 24 25 26 27 28 29 30 31 32 33 34 35 36 37 38 39 40 41 42 43 44 45 46 47 48 49 50

000
ASUS43 KMKX 060400
RWRWI

WISCONSIN REGIONAL WEATHER ROUNDUP
NATIONAL WEATHER SERVICE MILWAUKEE/SULLIVAN WI
1100 PM CDT TUE MAY 05 2015

NOTE: "FAIR" INDICATES FEW OR NO CLOUDS BELOW 12,000 FEET WITH NO
SIGNIFICANT WEATHER AND/OR OBSTRUCTIONS TO VISIBILITY.

WIZ001-002-006>008-014>016-023>028-060500-
NORTHWEST WISCONSIN

CITY           SKY/WX    TMP DP  RH WIND       PRES   REMARKS
SUPERIOR ARPT  PTCLDY    43  34  71 E6        30.19R
ASHLAND        CLEAR     36  33  89 CALM      30.19S
HAYWARD        PTCLDY    59  29  31 S8        30.19S
SIREN          MOCLDY    61  30  31 SE7       30.16S
CUMBERLAND     MOCLDY    57  32  38 SE9       30.18S
RICE LAKE      MOCLDY    59  33  38 SE9       30.19F
CHETEK         CLOUDY    58  37  45 E7        30.19S
LADYSMITH      PTCLDY    55  35  47 CALM      30.23R
EAU CLAIRE     NOT AVBL
MENOMONIE      CLOUDY    56  49  76 E15G21    30.18F
NEW RICHMOND   CLOUDY    58  48  70 SE12G18   30.16S
OSCEOLA        CLOUDY    61  47  61 SE9       30.17S
$$

WIZ003>005-009-010-017-018-060500-
NORTH CENTRAL WISCONSIN

CITY           SKY/WX    TMP DP  RH WIND       PRES   REMARKS
MANITOWISH WTR CLEAR     53  29  40 S6        30.23S
ARBOR VITAE    CLEAR     56  29  35 S6        30.24S
WOODRUFF       CLEAR     56  29  35 S6        30.24S
RHINELANDER    PTCLDY    51  26  37 SE5       30.25S
EAGLE RIVER    CLEAR     51  26  39 S5        30.24F
LAND O LAKES   CLEAR     54  27  36 SE3       30.25S
PHILLIPS       MOCLDY    55  30  38 SE5       30.22S
TOMAHAWK       MOCLDY    48  30  50 CALM      30.25S
MEDFORD        CLOUDY    55  24  29 SE7       30.22S
MERRILL        MOCLDY    53  26  34 SE5       30.25S
$$

WIZ029-030-035-036-043>047-060500-
CENTRAL WISCONSIN

CITY           SKY/WX    TMP DP  RH WIND       PRES   REMARKS
WAUSAU         CLOUDY    56  23  27 E7        30.22S
MOSINEE        CLOUDY    55  25  30 E5        30.25S
MARSHFIELD     LGT RAIN  54  45  71 SE7       30.22S
STEVENS POINT  CLOUDY    56  42  59 SE6       30.25S
WAUPACA        CLOUDY    58  46  64 SE5       30.25S
WAUTOMA        NOT AVBL
WISC RAPIDS    LGT RAIN  54  43  66 SE6       30.24S
CAMP DOUGLAS   NOT AVBL
$$

WIZ011>013-019>022-031-037>040-048>050-060500-
NORTHEAST WISCONSIN

CITY           SKY/WX    TMP DP  RH WIND       PRES   REMARKS
ANTIGO         MOCLDY    51  33  49 E7        30.26S
SHAWANO        CLOUDY    57  29  34 CALM      30.26S
OCONTO         CLOUDY    51  42  70 SE5       30.26S
STURGEON BAY   CLOUDY    52  32  46 E3        30.28F
GREEN BAY      CLOUDY    54  35  48 SE7       30.25F
MANITOWOC      NOT AVBL
APPLETON       MOCLDY    57  36  44 E7        30.25F
CLINTONVILLE   CLOUDY    55  28  35 E6        30.25S
OSHKOSH        CLOUDY    56  41  57 E8        30.24F
$$

WIZ032>034-041-042-053>061-060500-
SOUTHWEST WISCONSIN

CITY           SKY/WX    TMP DP  RH WIND       PRES   REMARKS
LA CROSSE      CLOUDY    56  53  90 E3        30.18F
SPARTA         CLOUDY    53  50  92 E3        30.20S
VIROQUA        CLOUDY    52  52 100 SE9       30.19S
BOSCOBEL       CLOUDY    56  53  90 CALM      30.20S FOG
PRAIRIE DU CHI CLOUDY    56  54  91 E6        30.17S
PLATTEVILLE    CLOUDY    53  52  96 E14       30.19S
$$

WIZ056-057-062-063-064-067-068-060500-
SOUTH CENTRAL WISCONSIN

CITY           SKY/WX    TMP DP  RH WIND       PRES   REMARKS
REEDSBURG      DRIZZLE   52  51  95 E6        30.21S
BARABOO/DELLS  NOT AVBL
LONE ROCK      NOT AVBL
MINERAL POINT  CLOUDY    54  52  94 E13       30.19F FOG
MADISON        CLOUDY    52  48  86 SE12      30.22S
MIDDLETON      CLOUDY    54  50  87 E10       30.22S
WATERTOWN      LGT RAIN  51  50  97 E6        30.23S
MONROE         CLOUDY    50  50 100 E8        30.20F FOG
JANESVILLE     CLOUDY    52  50  93 E5        30.21F FOG
$$

WIZ051-052-058>065-066-070>072-060500-
SOUTHEAST WISCONSIN

CITY           SKY/WX    TMP DP  RH WIND       PRES   REMARKS
MILWAUKEE      CLOUDY    45  40  82 NE3       30.27R
WAUKESHA       CLOUDY    46  45  93 E7        30.26S
MILWAUKEE/TIMM DRIZZLE   46  41  81 NE5       30.27R
RACINE         CLOUDY    45  41  86 NE6       30.26F
BURLINGTON     CLOUDY    47  46  97 E6        30.25R
KENOSHA        CLOUDY    48  45  89 NE7       30.25S
FOND DU LAC    CLOUDY    53  43  68 E5        30.25S
SHEBOYGAN      CLOUDY    47  38  71 NE6       30.26F
WEST BEND      CLOUDY    50  43  76 CALM      30.26R
JUNEAU         DRIZZLE   51  47  86 E7        30.25S
$$

LSZ147-162-060500-
LAKE SUPERIOR

STATION/POSITION TIME  TEMP    WIND        PRES    WAVE
                       AIR SEA DIR/SP/G            HT/PER
                 (UTC) (F)     (DEG/KT/KT) (MB)    (FT/S)
W MID LAKE BUOY  0250   43 36   90/ 14/ 16 1022.6S   1/ 3
DEVILS ISLAND    0300   46      20/  1/  2 1022.4R
PORT WING        0340   42     150/  1/  3 1022.4R
SAXON HARBOR     0300   43        CALM     1021.7R
$$

LMZ867-665-643>646-060500-
LAKE MICHIGAN

STATION/POSITION TIME  TEMP    WIND        PRES    WAVE
                       AIR SEA DIR/SP/G            HT/PER
                 (UTC) (F)     (DEG/KT/KT) (MB)    (FT/S)
CHAMBERS ISLAND  0300   44      CALM  /  1 1025.1R
NORTHPORT PIER   0300   48     310/  3/  3 1024.7S
SISTER BAY       0347   46        CALM       N/A
KEWAUNEE LAKESHO 0300   47      CALM  /  1 1024.2R
SHEBOYGAN LAKESH 0300   45      20/  4/  5 1025.8R
PORT WASHINGTON  0340   46      50/  6/  7 1025.4R
ATWATER BUOY     0300   44      30/  8/ 10 1025.5F
MILWAUKEE LAKESH 0300   44      40/  8/  9   N/A
KENOSHA   LAKESH 0300   44      30/  9/ 11 1024.4R
$$

TC  - TEMPERATURE IN CELSIUS
VSB - VISIBILITY IN STATUTE MILES
WCI - WIND CHILL INDEX
HX  - HEAT INDEX




USA.gov is the U.S. government's official web portal to all federal, state and local government web resources and services.